Tri-Cities, TN

2:09 AM EST on December 15, 2017 (GMT -0500)
Tri-Cities Regional Tennessee / Virginia

Weather History for KTRI - March, 2014

Change the Weather History Date:

Monday, March 31, 2014

  Actual Average Record
Temperature  
Mean Temperature 49 °F 51 °F  
Max Temperature 70 °F 64 °F 81 °F (1963)
Min Temperature 27 °F 38 °F 19 °F (1964)
Degree Days  
Heating Degree Days 16 14  
Month to date heating degree days 616 568  
Since 1 July heating degree days 4111 3950  
Cooling Degree Days 0 0  
Month to date cooling degree days 0 1  
Year to date cooling degree days 0 1  
Moisture  
Dew Point 27 °F    
Average Humidity 52    
Maximum Humidity 85    
Minimum Humidity 18    
Precipitation  
Precipitation 0.00 in 0.11 in 1.13 in (1954)
Month to date precipitation 2.27 3.44  
Year to date precipitation 7.33 10.26  
Snow  
Snow 0.00 in 0.00 in - ()
Month to date snowfall 0.7 1.4  
Since 1 July snowfall 13.0 12.2  
Snow Depth 0.00 in    
Sea Level Pressure  
Sea Level Pressure 30.14 in    
Wind  
Wind Speed 1 mph (SW)    
Max Wind Speed 6 mph    
Max Gust Speed 11 mph    
Visibility 10 miles    
Events      
T = Trace of Precipitation, MM = Missing Value Source: NWS Daily Summary

Daily Weather History Graph

Daily Weather History Graph

Search for Another Location

Airport or City:

Trip Planner

Search our weather history database for the weather conditions in past years. The results will help you decide how hot, cold, wet, or windy it might be!

Date:

Astronomy

Mar. 31, 2014 Rise Set
Actual Time 7:17 AM EDT 7:50 PM EDT
Civil Twilight 6:51 AM EDT 8:16 PM EDT
Nautical Twilight 6:20 AM EDT 8:47 PM EDT
Astronomical Twilight 5:49 AM EDT 9:18 PM EDT
Moon 7:41 AM EDT (3/31) 9:05 PM EDT (3/31)
Length of Visible Light 13h 25m
Length of Day
12h 33m
New Moon, 1% of the Moon is Illuminated
Mar 31
New Moon
Apr 7
First Quarter
Apr 15
Full
Apr 22
Last Quarter
Apr 29
New

Hourly Weather History & Observations

Time (EDT) Temp. Dew Point Humidity Pressure Visibility Wind Dir Wind Speed Gust Speed Precip Events Conditions
12:53 AM 33.1 °F 25.0 °F 72% 30.15 in 10.0 mi Calm Calm - N/A   Clear
1:53 AM 35.1 °F 25.0 °F 67% 30.15 in 10.0 mi Calm Calm - N/A   Clear
2:53 AM 30.9 °F 24.1 °F 76% 30.15 in 10.0 mi Calm Calm - N/A   Clear
3:53 AM 30.0 °F 24.1 °F 79% 30.15 in 10.0 mi Calm Calm - N/A   Clear
4:53 AM 28.9 °F 23.0 °F 78% 30.16 in 10.0 mi Calm Calm - N/A   Clear
5:53 AM 30.0 °F 24.1 °F 79% 30.18 in 10.0 mi Calm Calm - N/A   Clear
6:53 AM 28.9 °F 23.0 °F 78% 30.19 in 10.0 mi Calm Calm - N/A   Partly Cloudy
7:53 AM 28.9 °F 24.1 °F 82% 30.21 in 10.0 mi Calm Calm - N/A   Scattered Clouds
8:53 AM 34.0 °F 27.0 °F 75% 30.22 in 10.0 mi Calm Calm - N/A   Scattered Clouds
9:53 AM 42.1 °F 30.0 °F 62% 30.22 in 10.0 mi Calm Calm - N/A   Scattered Clouds
10:53 AM 48.0 °F 28.9 °F 48% 30.22 in 10.0 mi Calm Calm - N/A   Scattered Clouds
11:53 AM 52.0 °F 25.0 °F 35% 30.20 in 10.0 mi Calm Calm - N/A   Scattered Clouds
12:53 PM 55.0 °F 25.0 °F 31% 30.19 in 10.0 mi Calm Calm - N/A   Scattered Clouds
1:53 PM 59.0 °F 25.0 °F 27% 30.16 in 10.0 mi Calm Calm - N/A   Scattered Clouds
2:53 PM 63.0 °F 25.0 °F 24% 30.14 in 10.0 mi WNW 4.6 mph - N/A   Scattered Clouds
3:53 PM 66.0 °F 24.1 °F 20% 30.09 in 10.0 mi Calm Calm - N/A   Scattered Clouds
4:53 PM 68.0 °F 25.0 °F 20% 30.07 in 10.0 mi Calm Calm - N/A   Scattered Clouds
5:53 PM 70.0 °F 24.1 °F 18% 30.05 in 10.0 mi Calm Calm - N/A   Scattered Clouds
6:53 PM 68.0 °F 26.1 °F 21% 30.05 in 10.0 mi SSE 3.5 mph - N/A   Scattered Clouds
7:53 PM 61.0 °F 30.9 °F 32% 30.06 in 10.0 mi SSW 3.5 mph - N/A   Scattered Clouds
8:53 PM 55.0 °F 30.9 °F 40% 30.08 in 10.0 mi Calm Calm - N/A   Mostly Cloudy
9:53 PM 50.0 °F 32.0 °F 50% 30.09 in 10.0 mi Calm Calm - N/A   Scattered Clouds
10:53 PM 48.0 °F 33.1 °F 56% 30.08 in 10.0 mi Calm Calm - N/A   Scattered Clouds
11:53 PM 43.0 °F 32.0 °F 65% 30.07 in 10.0 mi Calm Calm - N/A   Clear